Location: Bouysse
(45.3674°N, 1.8947°E)
Time: 07:05:22
(UTC+00:00)

CZ-4 R/B - Pass Details

Date: 07 June 2020
Orbit: 681 x 753 km, 98.5° (Epoch: 12 July)

Event Time Altitude Azimuth Distance (km) Brightness Sun altitude
Rises 00:16:48 0° 14° (NNE) 3,097 8.6 -21.6°
Reaches altitude 10° 00:19:04 10° 14° (NNE) 2,165 7.5 -21.6°
Maximum altitude 00:23:49 87° 103° (ESE) 696 3.7 -21.5°
Enters shadow 00:24:50 55° 191° (S) 824 3.8 -21.4°
